• Join FlightAware (Why Join?)
  • Login
  • US Flag 
03:19PM EDT


 

Airport Tracker/Info


-or-


 

Live Flight TrackerFlight Track Log ✈ UAL4550 ✈ 14-Jul-2013 ✈ KMCI - KIAH

Flight Track Log - Related Links

Times and Time Zones

All times are in EDT time to prevent confusion due to time zone crossing. See the UAL4550 flight status page for this flight to view local times or setup timezone preferences in your user account.

Time Position Orientation Groundspeed Altitude Reporting Facility
EDT Latitude Longitude Course Direction KTS MPH feet Rate Location/Type
05:38PM 39.2833 -94.7333 199° South 184 212 1,600  Level Kansas City TRACON
05:39PM 39.2500 -94.7500 201° Southwest 180 207 2,900 1,680 Climbing Kansas City TRACON
05:40PM 39.1897 -94.7733 197° South 233 268 4,800 1,980 Climbing Kansas City Center
05:41PM 39.0454 -94.8071 195° South  Level FlightAware Approximate
05:41PM 39.1214 -94.7992 196° South 261 300 7,400  Level Kansas City Center
05:42PM 38.9577 -94.8363 195° South  Level FlightAware Approximate
05:42PM 39.0397 -94.8267 195° South 270 311 10,200  Level Kansas City Center
05:43PM 38.8712 -94.8703 199° South  Level FlightAware Approximate
05:43PM 38.9633 -94.8542 196° South 295 339 11,300  Level Kansas City Center
05:44PM 38.8597 -94.8892 195° South 339 390 12,800 1,500 Climbing Kansas City Center
05:45PM 38.7689 -94.9211 195° South 350 403 14,500 1,620 Climbing Kansas City Center
05:46PM 38.6614 -94.9572 195° South 356 410 16,200 1,500 Climbing Kansas City Center
05:47PM 38.5686 -94.9900 195° South 360 414 17,600 1,260 Climbing Kansas City Center
05:48PM 38.4589 -95.0286 195° South 365 420 18,900 1,140 Climbing Kansas City Center
05:49PM 38.3633 -95.0608 195° South 372 428 20,000 1,020 Climbing Kansas City Center
05:50PM 38.2650 -95.0933 195° South 377 434 21,000 1,020 Climbing Kansas City Center
05:51PM 38.1481 -95.1358 196° South 388 447 22,200 1,020 Climbing Kansas City Center
05:52PM 38.0456 -95.1703 195° South 395 455 23,200 960 Climbing Kansas City Center
05:53PM 37.9383 -95.2072 195° South 400 460 24,200 1,080 Climbing Kansas City Center
05:54PM 37.8089 -95.2464 193° South 399 459 25,500 1,200 Climbing Kansas City Center
05:55PM 37.7025 -95.2861 196° South 398 458 26,800 1,260 Climbing Kansas City Center
05:56PM 37.5972 -95.3186 194° South 392 451 28,200 1,260 Climbing Kansas City Center
05:57PM 37.4925 -95.3422 190° South 385 443 29,500 1,200 Climbing Kansas City Center
05:58PM 37.3908 -95.3611 188° South 373 429 30,700 1,260 Climbing Kansas City Center
05:59PM 37.2689 -95.3867 189° South 369 425 32,200 1,260 Climbing Kansas City Center
06:00PM 37.1689 -95.4078 190° South 365 420 33,400 960 Climbing Kansas City Center
06:01PM 37.0703 -95.4286 190° South 360 414 34,200 720 Climbing Kansas City Center
06:03PM 36.9700 -95.4497 190° South 362 417 35,000 660 Climbing Kansas City Center
06:04PM 36.8694 -95.4708 190° South 364 419 35,600 480 Climbing Kansas City Center
06:05PM 36.7664 -95.4922 189° South 371 427 36,000 180 Climbing Kansas City Center
06:06PM 36.6386 -95.5203 190° South 385 443 36,000  Level Kansas City Center
06:07PM 36.5378 -95.5417 190° South 404 465 36,000  Level Kansas City Center
06:08PM 36.4197 -95.5650 189° South 420 483 36,000  Level Kansas City Center
06:09PM 36.2717 -95.5947 189° South 440 506 36,000  Level Kansas City Center
06:10PM 36.1450 -95.6200 189° South 454 522 36,000  Level Kansas City Center
06:11PM 36.0122 -95.6467 189° South 461 531 36,000  Level Kansas City Center
06:12PM 35.8831 -95.6731 189° South 468 539 36,000  Level Kansas City Center
06:13PM 35.7539 -95.6981 189° South 470 541 36,000  Level Kansas City Center
06:14PM 35.6244 -95.7308 192° South 472 543 36,000  Level Fort Worth Center
06:15PM 35.4953 -95.7539 188° South 466 536 36,000  Level Fort Worth Center
06:16PM 35.3664 -95.7819 190° South 466 536 36,000  Level Fort Worth Center
06:17PM 35.2375 -95.8072 189° South 466 536 36,000  Level Fort Worth Center
06:18PM 35.1044 -95.8350 190° South 471 542 36,000  Level Fort Worth Center
06:19PM 34.9775 -95.8628 190° South 471 542 36,000  Level Fort Worth Center
06:20PM 34.8442 -95.8828 187° South 477 549 36,000  Level Fort Worth Center
06:21PM 34.7111 -95.9081 189° South 482 555 36,000  Level Fort Worth Center
06:22PM 34.5819 -95.9331 189° South 482 555 36,000  Level Fort Worth Center
06:23PM 34.4508 -95.9603 190° South 482 555 36,000  Level Fort Worth Center
06:24PM 34.3197 -95.9878 190° South 482 555 36,000  Level Fort Worth Center
06:25PM 34.1886 -96.0150 190° South 482 555 36,000  Level Fort Worth Center
06:26PM 34.0636 -96.0347 187° South 482 555 36,000  Level Fort Worth Center
06:27PM 33.9344 -96.0592 189° South 471 542 36,000  Level Fort Worth Center
06:28PM 33.8011 -96.0861 190° South 471 542 36,000  Level Fort Worth Center
06:29PM 33.6719 -96.1106 189° South 471 542 36,000  Level Fort Worth Center
06:30PM 33.5408 -96.1375 190° South 471 542 36,000  Level Fort Worth Center
06:31PM 33.4136 -96.1592 188° South 471 542 36,000  Level Fort Worth Center
06:32PM 33.2825 -96.1833 189° South 471 542 36,000  Level Fort Worth Center
06:33PM 33.1533 -96.2100 190° South 476 548 36,000  Level Fort Worth Center
06:34PM 33.0178 -96.2367 189° South 482 555 36,000  Level Fort Worth Center
06:35PM 32.8844 -96.2581 188° South 482 555 36,000  Level Fort Worth Center
06:36PM 32.7553 -96.2844 190° South 482 555 36,000  Level Fort Worth Center
06:37PM 32.6219 -96.3108 189° South 482 555 36,000  Level Fort Worth Center
06:38PM 32.4928 -96.3542 196° South 482 555 36,000  Level Fort Worth Center
06:39PM 32.3764 -96.4269 208° Southwest 469 540 36,000  Level Fort Worth Center
06:40PM 32.2622 -96.4994 208° Southwest 474 545 36,000  Level Fort Worth Center
06:41PM 32.1353 -96.5547 200° South 480 552 36,000  Level Fort Worth Center
06:42PM 32.0039 -96.5658 184° South 471 542 36,000 -420 Level Fort Worth Center
06:43PM 31.8700 -96.5522 175° South 476 548 35,200 -1,860 Descending Fort Worth Center
06:44PM 31.7364 -96.5389 175° South 476 548 32,300 -2,460 Descending Fort Worth Center
06:45PM 31.5631 -96.5189 174° South 489 563 29,400 -1,620 Descending Houston Center
06:46PM 31.4319 -96.4722 163° South 488 562 28,500 -960 Descending Houston Center
06:47PM 31.3136 -96.3953 151° Southeast 480 552 27,500 -1,560 Descending Houston Center
06:48PM 31.2014 -96.3253 152° Southeast 457 526 25,400 -2,220 Descending Houston Center
06:49PM 31.0931 -96.2561 151° Southeast 442 509 23,000 -2,220 Descending Houston Center
06:50PM 30.9836 -96.1903 153° Southeast 430 495 20,900 -2,040 Descending Houston Center
06:51PM 30.8817 -96.1275 152° Southeast 420 483 18,900 -2,280 Descending Houston Center
06:52PM 30.7669 -96.0561 152° Southeast 392 451 16,300 -2,280 Descending Houston Center
06:53PM 30.6758 -95.9994 152° Southeast 377 434 14,200 -1,800 Descending Houston Center
06:54PM 30.5989 -95.9522 152° Southeast 357 411 12,700 -1,620 Descending Houston Center
06:55PM 30.5208 -95.9031 152° Southeast 326 375 11,000 -1,320 Descending Houston Center
06:56PM 30.4356 -95.8456 150° Southeast 297 342 10,000 -840 Descending Houston Center
06:57PM 30.3606 -95.8264 168° South 289 333 9,300 -900 Descending Houston Center
06:58PM 30.2814 -95.8167 174° South 287 330 8,200 -660 Descending Houston Center
07:00PM 30.2100 -95.8108 176° South 266 306 8,000 -300 Descending Houston Center
07:01PM 30.1456 -95.7961 169° South 240 276 7,700 -720 Descending Houston Center
07:02PM 30.0550 -95.7981 181° South 237 273 6,400 -960 Descending Houston Center
07:03PM 30.0247 -95.7725 144° Southeast 241 277 5,800 -780 Descending Houston Center
07:04PM 29.9906 -95.6900 116° Southeast 236 272 5,000 -720 Descending Houston Center
07:05PM 29.9933 -95.6144 88° East 237 273 4,400 -960 Descending Houston Center
07:06PM 29.9931 -95.5383 90° East 237 273 3,100 -1,260 Descending Houston Center